GW3537 Weather Reports


time (UTC)temp
C
wind
direction
speed
KPH
gust
KPH
rain 1hr
cm
rain 24hr
cm
rain mn
cm
humidity
%
barometer
mb
20260506030023 16 274 0.0 0.0 0.00 0.30 0.00 55 1013.3
20260506024504 16 291 0.0 0.0 0.00 0.30 0.00 52 1013.2
20260506023010 17 308 0.0 0.0 0.00 0.33 0.00 50 1013.1
20260506021532 18 301 0.0 6.4 0.00 0.38 0.00 48 1013.1
20260506020025 19 284 0.0 8.0 0.00 0.51 0.00 44 1012.8
20260506014504 20 204 0.0 6.4 0.00 0.81 0.00 44 1012.8
20260506013006 20 288 0.0 3.2 0.00 1.17 0.00 39 1012.7
20260506011510 21 276 0.0 3.2 0.00 1.32 0.00 36 1012.7
20260506010018 21 283 0.0 0.0 0.00 1.32 0.00 35 1012.5
20260506004527 20 291 0.0 0.0 0.00 1.32 0.00 37 1012.6
20260506003007 20 291 0.0 1.6 0.00 1.32 0.00 38 1012.6
20260506001510 20 342 0.0 0.0 0.00 1.32 0.00 35 1012.6
20260506000016 20 100 0.0 0.0 0.00 1.32 0.00 37 1012.6
20260505234518 19 271 0.0 0.0 0.00 1.32 0.00 39 1012.6
20260505233027 19 283 0.0 0.0 0.00 1.32 0.00 41 1012.8
20260505231507 19 128 0.0 0.0 0.00 1.32 0.00 41 1012.9
20260505230023 19 70 0.0 0.0 0.00 1.32 0.00 39 1012.9
20260505224518 20 190 0.0 0.0 0.00 1.32 0.00 41 1012.9
20260505223021 20 135 0.0 0.0 0.00 1.45 0.00 40 1013.0
20260505221526 20 257 0.0 0.0 0.00 1.52 0.00 40 1013.2
20260505220012 19 266 0.0 1.6 0.00 1.55 0.00 44 1013.4
20260505214516 19 239 0.0 0.0 0.00 1.68 0.00 43 1013.6
20260505213033 20 74 0.0 1.6 0.00 1.68 0.00 45 1013.6
20260505211526 18 122 0.0 0.0 0.00 1.68 0.00 45 1013.8
20260505210012 17 266 0.0 1.6 0.00 1.68 0.00 50 1013.8
20260505204516 17 259 0.0 0.0 0.00 1.68 0.00 51 1013.8
20260505203029 17 297 0.0 1.6 0.00 1.68 0.00 51 1014.0
20260505201531 16 248 0.0 0.0 0.00 1.68 0.00 52 1014.0
20260505200010 16 277 0.0 0.0 0.00 1.68 0.00 57 1014.0
20260505194512 15 276 0.0 1.6 0.00 1.68 0.00 62 1014.2
20260505193024 15 278 0.0 1.6 0.00 1.68 0.00 60 1014.2
20260505191521 14 243 0.0 1.6 0.00 1.68 0.00 63 1014.4
20260505190025 13 281 0.0 1.6 0.00 1.68 0.00 65 1014.5
20260505184510 13 263 0.0 1.6 0.00 1.68 0.00 66 1014.5
20260505183021 12 276 0.0 1.6 0.00 1.68 0.00 69 1014.5
20260505181522 12 290 0.0 3.2 0.00 1.68 0.00 69 1014.4
20260505180022 12 274 0.0 9.7 0.00 1.68 0.00 68 1014.3
20260505174530 12 271 0.0 3.2 0.00 1.68 0.00 67 1014.2
20260505173015 12 297 0.0 1.6 0.00 1.68 0.00 69 1014.1
20260505171520 12 267 0.0 8.0 0.00 1.68 0.00 72 1014.0
20260505170024 12 305 0.0 0.0 0.00 1.68 0.00 74 1014.0
20260505164527 10 263 0.0 1.6 0.00 1.68 0.00 77 1014.0
20260505163032 10 316 0.0 0.0 0.00 1.68 0.00 79 1013.9
20260505161517 9 315 0.0 0.0 0.00 1.68 0.00 82 1013.8
20260505153027 8 269 0.0 0.0 0.00 1.68 0.00 85 1013.3
20260505151527 7 323 0.0 0.0 0.00 1.68 0.00 85 1013.2
20260505124520 6 290 0.0 0.0 0.00 1.68 0.00 87 1011.7
20260505123024 6 277 0.0 1.6 0.00 1.68 0.00 87 1011.7
20260505121513 6 271 0.0 0.0 0.00 1.68 0.00 87 1011.8
20260505120014 6 280 0.0 0.0 0.00 1.68 0.00 87 1011.7
20260505114520 6 288 0.0 6.4 0.00 1.68 0.00 87 1011.6
20260505113022 6 280 0.0 8.0 0.00 1.68 0.00 87 1011.5
20260505111525 6 276 0.0 1.6 0.00 1.68 0.00 86 1011.6
20260505101521 6 274 0.0 0.0 0.00 1.68 0.00 85 1012.0
20260505100028 6 285 0.0 1.6 0.00 1.68 0.00 85 1012.0
20260505093028 6 312 0.0 1.6 0.00 1.68 0.00 88 1011.8
20260505091527 6 276 0.0 0.0 0.00 1.68 0.00 89 1012.1
20260505090026 6 278 0.0 3.2 0.00 1.68 0.00 88 1012.1
20260505084526 5 256 0.0 1.6 0.00 1.68 0.00 89 1012.6
20260505083014 5 260 0.0 0.0 0.00 1.68 0.00 90 1012.7
20260505081527 5 274 0.0 0.0 0.00 1.68 0.00 89 1012.7
20260505080026 5 291 0.0 1.6 0.00 1.68 0.00 87 1012.8
20260505074526 6 314 0.0 1.6 0.00 1.68 0.00 84 1012.8
20260505041512 6 267 1.6 12.9 0.13 1.52 1.52 89 1012.6
20260505040016 6 273 0.0 6.4 0.13 1.47 1.47 90 1012.4
20260505034518 6 283 0.0 1.6 0.05 1.42 1.42 90 1012.7
20260505033020 6 270 0.0 3.2 0.05 1.40 1.40 89 1012.1
20260505031509 5 253 0.0 1.6 0.10 1.40 1.40 89 1012.0